TimeCDT,TemperatureF,Dew PointF,Humidity,Sea Level PressureIn,VisibilityMPH,Wind Direction,Wind SpeedMPH,Gust SpeedMPH,PrecipitationIn,Events,Conditions,WindDirDegrees,DateUTC
12:53 AM,61.0,55.0,81,29.86,10.0,South,3.5,-,N/A,,Mostly Cloudy,170,2012-10-17 05:53:00
1:53 AM,57.0,54.0,89,29.86,10.0,SSE,4.6,-,N/A,,Partly Cloudy,150,2012-10-17 06:53:00
2:53 AM,57.9,53.1,84,29.85,10.0,SSE,5.8,-,N/A,,Partly Cloudy,150,2012-10-17 07:53:00
3:53 AM,57.9,52.0,81,29.84,10.0,SSE,6.9,-,N/A,,Clear,160,2012-10-17 08:53:00
4:53 AM,59.0,54.0,83,29.83,10.0,SSE,6.9,-,N/A,,Clear,160,2012-10-17 09:53:00
5:53 AM,57.9,54.0,87,29.84,10.0,SSE,5.8,-,N/A,,Clear,160,2012-10-17 10:53:00
6:53 AM,60.1,55.0,83,29.85,10.0,SSE,6.9,-,N/A,,Partly Cloudy,150,2012-10-17 11:53:00
7:53 AM,62.1,55.9,80,29.85,10.0,SSE,8.1,-,N/A,,Clear,160,2012-10-17 12:53:00
8:53 AM,66.9,57.0,70,29.83,10.0,South,11.5,-,N/A,,Clear,170,2012-10-17 13:53:00
9:53 AM,72.0,60.1,66,29.82,10.0,South,13.8,20.7,N/A,,Clear,170,2012-10-17 14:53:00
10:53 AM,77.0,63.0,62,29.81,10.0,South,12.7,19.6,N/A,,Clear,190,2012-10-17 15:53:00
11:53 AM,79.0,61.0,54,29.80,10.0,SW,12.7,23.0,N/A,,Clear,220,2012-10-17 16:53:00
12:53 PM,81.0,63.0,54,29.76,10.0,South,11.5,19.6,N/A,,Clear,190,2012-10-17 17:53:00
1:53 PM,82.9,64.0,53,29.73,10.0,SSW,10.4,19.6,N/A,,Mostly Cloudy,200,2012-10-17 18:53:00
2:53 PM,81.0,64.0,56,29.71,10.0,SSW,10.4,18.4,N/A,,Overcast,200,2012-10-17 19:53:00
3:53 PM,82.0,66.0,58,29.69,10.0,South,15.0,24.2,N/A,,Scattered Clouds,190,2012-10-17 20:53:00
4:53 PM,82.0,66.0,58,29.68,10.0,South,10.4,21.9,N/A,,Mostly Cloudy,180,2012-10-17 21:53:00
5:53 PM,79.0,66.9,66,29.68,10.0,South,11.5,-,N/A,,Scattered Clouds,170,2012-10-17 22:53:00
6:53 PM,77.0,66.9,71,29.66,10.0,SSE,10.4,-,N/A,,Partly Cloudy,160,2012-10-17 23:53:00
7:53 PM,75.9,68.0,76,29.67,10.0,South,11.5,18.4,N/A,,Mostly Cloudy,170,2012-10-18 00:53:00
8:53 PM,75.0,68.0,79,29.68,10.0,South,9.2,-,N/A,,Clear,180,2012-10-18 01:53:00
9:53 PM,75.9,69.1,79,29.65,10.0,South,16.1,21.9,N/A,,Partly Cloudy,180,2012-10-18 02:53:00
10:28 PM,75.2,69.8,83,29.66,10.0,SSW,11.5,19.6,N/A,,Mostly Cloudy,200,2012-10-18 03:28:00
10:53 PM,75.9,70.0,82,29.68,10.0,SSW,12.7,21.9,N/A,,Mostly Cloudy,200,2012-10-18 03:53:00
11:49 PM,75.2,71.6,89,29.66,5.0,SSW,9.2,-,0.04,Rain,Light Rain,200,2012-10-18 04:49:00
11:53 PM,75.0,72.0,90,29.68,9.0,South,11.5,19.6,0.04,Rain,Light Rain,190,2012-10-18 04:53:00